QPF
0.00 0.00 0.00 0.00 0.00 0.00 0.00 0.00 0.00 0.00 0.00 0.00 0.00 0.00 0.00 0.00 0.00 0.00 0.00 0.00 0.00 0.00 0.00 0.00 0.00 0.00 0.00 0.00 0.00 0.00 0.00 0.00 0.00 0.02 0.07 0.09 0.04 0.06 0.06 0.00 0.00 0.00 0.00 0.00
0.00 0.00 0.00 0.00 0.00 0.00 0.00 0.00 0.00 0.00 0.00 0.00 0.00 0.00 0.00 0.00 0.00 0.00 0.00 0.00 0.00 0.00 0.00 0.00 0.00 0.00 0.00 0.00 0.00 0.00 0.00 0.00 0.00 0.00 0.02 0.06 0.10 0.12 0.06 0.03 0.00 0.00 0.00 0.00
0.00 0.00 0.00 0.00 0.00 0.00 0.00 0.00 0.00 0.00 0.00 0.00 0.00 0.00 0.00 0.00 0.00 0.00 0.00 0.00 0.00 0.00 0.00 0.00 0.00 0.00 0.00 0.00 0.00 0.00 0.00 0.00 0.00 0.00 0.01 0.12 0.21 0.25 0.21 0.10 0.00 0.00 0.00 0.00
0.00 0.00 0.00 0.00 0.00 0.00 0.00 0.00 0.00 0.00 0.00 0.00 0.00 0.00 0.00 0.00 0.00 0.00 0.00 0.00 0.00 0.00 0.00 0.00 0.00 0.00 0.00 0.00 0.00 0.00 0.00 0.00 0.00 0.00 0.00 0.08 0.11 0.09 0.03 0.04 0.01 0.00 0.00 0.00
0.00 0.00 0.00 0.00 0.00 0.00 0.00 0.00 0.00 0.00 0.00 0.00 0.00 0.00 0.00 0.00 0.00 0.00 0.00 0.00 0.00 0.00 0.00 0.00 0.00 0.00 0.00 0.00 0.00 0.00 0.00 0.00 0.00 0.00 0.00 0.04 0.11 0.11 0.11 0.13 0.11 0.01 0.00 0.00
0.00 0.00 0.00 0.00 0.00 0.00 0.00 0.00 0.00 0.00 0.00 0.00 0.00 0.00 0.00 0.00 0.00 0.00 0.00 0.00 0.00 0.00 0.00 0.00 0.00 0.00 0.00 0.00 0.00 0.00 0.00 0.00 0.00 0.00 0.00 0.02 0.08 0.15 0.20 0.15 0.11 0.06 0.00 0.00
0.00 0.00 0.00 0.00 0.00 0.00 0.00 0.00 0.00 0.00 0.00 0.00 0.00 0.00 0.00 0.00 0.00 0.00 0.00 0.00 0.00 0.00 0.00 0.00 0.00 0.00 0.00 0.00 0.00 0.00 0.00 0.00 0.00 0.00 0.00 0.03 0.08 0.15 0.22 0.14 0.07 0.03 0.00 0.00
0.00 0.00 0.00 0.00 0.00 0.00 0.00 0.00 0.00 0.00 0.00 0.00 0.00 0.01 0.00 0.00 0.00 0.00 0.00 0.00 0.00 0.00 0.00 0.00 0.00 0.00 0.00 0.00 0.00 0.01 0.00 0.01 0.00 0.00 0.00 0.10 0.12 0.18 0.21 0.22 0.07 0.02 0.00 0.00
0.00 0.00 0.00 0.00 0.00 0.00 0.00 0.00 0.00 0.00 0.00 0.00 0.00 0.03 0.01 0.00 0.00 0.00 0.00 0.00 0.00 0.00 0.00 0.01 0.01 0.01 0.01 0.02 0.04 0.05 0.05 0.05 0.08 0.05 0.02 0.18 0.31 0.29 0.40 0.40 0.41 0.28 0.19 0.07
0.00 0.00 0.00 0.00 0.00 0.00 0.00 0.00 0.00 0.01 0.00 0.00 0.00 0.02 0.01 0.00 0.00 0.00 0.00 0.00 0.00 0.00 0.00 0.01 0.04 0.08 0.09 0.06 0.07 0.07 0.09 0.09 0.11 0.14 0.05 0.19 0.42 0.43 0.40 0.55 0.44 0.41 0.20 0.16
0.00 0.00 0.00 0.00 0.00 0.00 0.00 0.00 0.00 0.00 0.00 0.00 0.02 0.03 0.00 0.00 0.00 0.00 0.00 0.00 0.00 0.01 0.01 0.03 0.06 0.15 0.22 0.25 0.21 0.21 0.19 0.14 0.09 0.10 0.07 0.12 0.45 0.48 0.62 0.65 0.46 0.50 0.29 0.16
0.00 0.00 0.00 0.00 0.00 0.00 0.00 0.00 0.00 0.00 0.00 0.04 0.12 0.12 0.01 0.00 0.00 0.00 0.00 0.00 0.00 0.01 0.02 0.05 0.10 0.20 0.36 0.55 0.44 0.31 0.23 0.22 0.17 0.11 0.10 0.13 0.23 0.49 0.58 0.58 0.41 0.21 0.30 0.27
0.00 0.00 0.00 0.00 0.00 0.00 0.00 0.00 0.00 0.00 0.00 0.01 0.05 0.05 0.00 0.00 0.00 0.00 0.00 0.00 0.00 0.00 0.01 0.03 0.08 0.13 0.21 0.40 0.64 0.45 0.27 0.23 0.26 0.11 0.11 0.15 0.27 0.55 0.57 0.52 0.44 0.43 0.29 0.10
0.00 0.00 0.00 0.00 0.00 0.00 0.00 0.00 0.00 0.00 0.01 0.06 0.12 0.04 0.00 0.00 0.00 0.00 0.00 0.00 0.00 0.00 0.00 0.01 0.02 0.05 0.11 0.17 0.38 0.38 0.36 0.46 0.40 0.16 0.12 0.12 0.24 0.33 0.42 0.26 0.32 0.47 0.61 0.30
0.00 0.00 0.00 0.00 0.00 0.00 0.00 0.00 0.00 0.00 0.00 0.02 0.04 0.00 0.00 0.00 0.00 0.00 0.00 0.00 0.00 0.00 0.00 0.00 0.00 0.00 0.01 0.03 0.14 0.16 0.18 0.25 0.41 0.26 0.18 0.18 0.13 0.17 0.19 0.15 0.10 0.20 0.20 0.27
0.00 0.00 0.00 0.00 0.00 0.00 0.00 0.00 0.00 0.00 0.00 0.01 0.02 0.01 0.00 0.00 0.00 0.00 0.00 0.00 0.00 0.00 0.00 0.00 0.00 0.00 0.00 0.00 0.00 0.01 0.04 0.06 0.08 0.14 0.11 0.18 0.14 0.05 0.05 0.05 0.07 0.09 0.10 0.06
0.00 0.00 0.00 0.00 0.00 0.00 0.00 0.00 0.00 0.00 0.00 0.00 0.01 0.00 0.00 0.00 0.00 0.00 0.00 0.00 0.00 0.00 0.00 0.00 0.00 0.00 0.00 0.00 0.00 0.00 0.00 0.00 0.01 0.02 0.04 0.03 0.01 0.01 0.01 0.01 0.02 0.02 0.03 0.01
0.00 0.00 0.00 0.01 0.01 0.01 0.00 0.00 0.00 0.00 0.00 0.00 0.00 0.00 0.00 0.00 0.00 0.00 0.00 0.00 0.00 0.00 0.00 0.00 0.00 0.00 0.00 0.00 0.00 0.00 0.00 0.00 0.00 0.00 0.00 0.01 0.02 0.00 0.00 0.00 0.00 0.00 0.00 0.00
0.00 0.00 0.00 0.00 0.01 0.01 0.00 0.00 0.00 0.00 0.01 0.00 0.00 0.00 0.00 0.00 0.01 0.02 0.00 0.00 0.00 0.00 0.00 0.00 0.00 0.00 0.00 0.00 0.00 0.00 0.00 0.00 0.00 0.00 0.00 0.00 0.00 0.00 0.00 0.00 0.00 0.00 0.00 0.00
0.00 0.00 0.00 0.00 0.01 0.03 0.01 0.00 0.00 0.00 0.02 0.00 0.00 0.00 0.00 0.00 0.02 0.03 0.00 0.00 0.00 0.00 0.00 0.00 0.00 0.00 0.00 0.00 0.00 0.00 0.00 0.00 0.00 0.00 0.00 0.00 0.00 0.00 0.00 0.00 0.00 0.00 0.00 0.00
0.00 0.00 0.00 0.00 0.00 0.01 0.00 0.00 0.00 0.00 0.01 0.00 0.00 0.00 0.00 0.00 0.00 0.00 0.00 0.00 0.00 0.00 0.00 0.00 0.00 0.00 0.00 0.00 0.00 0.00 0.00 0.00 0.00 0.00 0.00 0.00 0.00 0.00 0.00 0.00 0.00 0.00 0.00 0.00
0.00 0.00 0.00 0.00 0.00 0.01 0.00 0.00 0.00 0.00 0.00 0.00 0.00 0.00 0.00 0.00 0.00 0.00 0.00 0.00 0.00 0.00 0.00 0.00 0.00 0.00 0.00 0.00 0.00 0.00 0.00 0.00 0.00 0.00 0.00 0.00 0.00 0.00 0.00 0.00 0.00 0.00 0.00 0.00
0.00 0.00 0.00 0.00 0.00 0.00 0.00 0.00 0.00 0.00 0.00 0.00 0.00 0.00 0.00 0.00 0.00 0.00 0.00 0.00 0.00 0.00 0.00 0.00 0.00 0.00 0.00 0.00 0.00 0.00 0.00 0.00 0.00 0.00 0.00 0.00 0.00 0.00 0.00 0.00 0.00 0.00 0.00 0.00
0.00 0.00 0.00 0.00 0.00 0.00 0.00 0.00 0.00 0.00 0.00 0.00 0.00 0.00 0.00 0.00 0.00 0.00 0.00 0.00 0.00 0.00 0.00 0.00 0.00 0.00 0.00 0.00 0.00 0.00 0.00 0.00 0.00 0.00 0.00 0.00 0.00 0.00 0.00 0.00 0.00 0.00 0.00 0.00
0.00 0.00 0.00 0.00 0.00 0.00 0.00 0.00 0.00 0.00 0.00 0.00 0.00 0.00 0.00 0.00 0.00 0.00 0.00 0.00 0.00 0.00 0.00 0.00 0.00 0.00 0.00 0.00 0.00 0.00 0.00 0.00 0.00 0.00 0.00 0.00 0.00 0.00 0.00 0.00 0.01 0.00 0.01 0.01
0.00 0.00 0.00 0.00 0.00 0.00 0.00 0.00 0.00 0.00 0.00 0.00 0.00 0.00 0.00 0.00 0.00 0.00 0.00 0.00 0.00 0.00 0.00 0.00 0.00 0.00 0.00 0.00 0.00 0.00 0.00 0.00 0.00 0.00 0.00 0.00 0.00 0.00 0.00 0.00 0.00 0.00 0.00 0.00
MSLP
1011.64 1011.56 1010.64 1009.73 1009.78 1009.69 1009.77 1009.27 1008.35 1007.66 1007.10 1007.29 1007.66 1007.88 1007.92 1008.23 1009.47 1010.99 1012.05 1012.89 1013.40 1013.75 1014.07 1014.54 1014.53 1014.12 1013.12 1012.32 1011.31 1010.25 1008.90 1007.89 1006.09 1005.75 1005.43 1005.48 1005.52 1005.17 1005.75 1005.53 1005.89 1006.30 1006.94 1007.64
1011.46 1010.68 1010.29 1010.40 1010.31 1010.20 1010.16 1009.56 1008.69 1007.89 1007.50 1007.77 1007.88 1007.99 1007.93 1009.75 1011.29 1012.52 1013.93 1014.78 1015.17 1015.07 1015.14 1014.99 1014.95 1015.17 1015.15 1014.05 1012.44 1010.87 1009.91 1008.73 1006.06 1005.06 1004.89 1004.69 1004.86 1004.66 1004.69 1005.27 1005.45 1005.77 1006.18 1006.99
1010.59 1009.92 1010.57 1010.68 1010.38 1010.21 1009.90 1009.38 1008.93 1008.81 1008.72 1008.43 1007.89 1007.74 1009.21 1010.46 1011.60 1013.40 1014.90 1016.14 1017.06 1017.26 1016.65 1016.24 1016.02 1015.90 1015.62 1014.91 1013.54 1011.77 1010.78 1009.16 1005.94 1004.30 1004.19 1004.42 1004.07 1004.34 1004.39 1004.62 1004.41 1004.90 1005.53 1006.13
1010.24 1010.32 1010.61 1010.56 1010.31 1010.20 1009.91 1009.56 1009.84 1009.71 1009.32 1008.67 1008.70 1008.20 1008.98 1010.69 1012.34 1014.27 1015.65 1017.02 1017.51 1017.55 1017.79 1017.69 1017.22 1016.77 1016.36 1015.71 1014.66 1013.16 1011.21 1009.20 1006.87 1003.78 1003.73 1003.81 1003.86 1003.77 1003.24 1003.41 1003.29 1003.58 1004.47 1005.17
1010.53 1010.51 1010.88 1010.93 1010.57 1010.46 1010.35 1010.30 1010.41 1010.12 1009.72 1009.22 1008.62 1008.93 1010.17 1012.04 1014.06 1015.66 1016.92 1017.64 1018.44 1019.05 1019.15 1018.79 1018.44 1017.97 1016.93 1016.48 1015.32 1013.58 1011.71 1009.45 1007.50 1006.18 1003.38 1003.18 1003.17 1003.02 1002.83 1002.33 1002.55 1002.08 1003.15 1003.80
1010.48 1010.29 1010.70 1010.53 1010.53 1010.81 1010.71 1010.50 1009.86 1009.36 1009.46 1009.14 1008.07 1009.26 1012.41 1013.77 1016.11 1017.54 1018.45 1019.17 1019.78 1019.98 1019.86 1019.77 1019.59 1018.70 1017.73 1016.76 1015.58 1014.02 1012.17 1010.42 1008.64 1007.10 1005.41 1003.76 1002.72 1002.50 1002.32 1001.70 1001.59 1001.24 1002.13 1003.40
1009.97 1009.87 1010.28 1010.73 1010.60 1010.25 1010.64 1010.10 1009.27 1008.36 1009.26 1008.92 1009.01 1010.53 1014.00 1015.79 1017.48 1019.20 1019.74 1020.26 1020.88 1020.85 1020.67 1020.41 1020.09 1019.69 1018.49 1017.38 1016.15 1014.81 1013.06 1011.04 1009.28 1007.96 1006.36 1004.55 1003.24 1002.12 1001.31 1000.90 999.97 1000.42 1001.34 1002.21
1008.83 1009.36 1009.67 1010.31 1010.52 1010.23 1010.49 1010.55 1010.37 1009.86 1009.70 1009.55 1009.80 1011.79 1015.91 1017.25 1018.62 1019.26 1020.57 1021.30 1021.87 1021.49 1021.39 1021.62 1021.28 1020.37 1019.53 1018.53 1017.24 1015.84 1014.04 1011.76 1010.56 1008.93 1007.49 1005.45 1003.66 1002.61 1001.20 999.70 998.31 998.79 999.56 1000.93
1008.63 1008.86 1009.66 1010.08 1010.26 1010.56 1010.46 1010.90 1011.05 1011.23 1011.01 1010.78 1011.18 1014.86 1016.29 1017.84 1019.05 1020.23 1021.09 1021.70 1022.16 1021.99 1022.30 1022.22 1021.76 1021.21 1020.20 1018.92 1017.59 1016.51 1014.53 1012.76 1011.69 1009.86 1008.45 1006.49 1004.94 1003.67 1001.65 1000.70 999.33 997.82 997.94 999.58
1009.69 1009.71 1009.87 1010.05 1010.72 1010.73 1010.73 1010.81 1011.23 1011.74 1011.62 1011.43 1012.15 1015.03 1017.30 1018.93 1019.88 1020.70 1021.53 1022.43 1022.75 1022.73 1023.01 1022.82 1022.36 1021.34 1020.70 1019.41 1018.06 1016.74 1014.94 1013.56 1013.04 1011.20 1009.78 1007.69 1006.92 1005.04 1003.57 1001.93 999.32 1001.93 997.79 999.12
1010.43 1010.46 1010.25 1010.34 1010.44 1009.79 1010.59 1010.95 1012.00 1012.33 1012.80 1013.01 1013.92 1017.02 1019.64 1020.71 1021.20 1021.69 1022.64 1023.17 1023.26 1023.24 1023.49 1023.18 1022.56 1021.62 1020.68 1019.17 1017.76 1016.88 1015.29 1014.93 1014.20 1012.14 1009.98 1008.59 1007.85 1006.49 1005.38 1005.73 1004.27 1002.99 998.71 999.05
1011.22 1010.82 1010.10 1010.06 1009.84 1010.39 1010.77 1011.50 1012.47 1013.44 1013.45 1014.67 1016.20 1018.56 1020.34 1021.29 1021.91 1022.45 1023.13 1023.38 1023.61 1023.75 1023.66 1023.24 1022.53 1021.58 1020.52 1019.15 1018.36 1017.96 1016.93 1016.57 1015.07 1013.17 1010.89 1009.52 1009.09 1008.16 1006.56 1006.95 1007.36 1005.07 1002.85 1002.21
1011.85 1011.39 1010.71 1010.32 1010.93 1011.21 1011.47 1012.50 1013.43 1014.31 1015.00 1015.93 1017.24 1019.20 1020.88 1021.96 1022.19 1022.77 1023.20 1023.36 1023.57 1023.68 1023.52 1023.11 1022.34 1021.84 1021.21 1020.49 1019.80 1018.98 1018.06 1017.34 1015.72 1014.22 1012.11 1011.01 1009.63 1008.79 1007.87 1009.74 1009.00 1004.05 1004.51 1006.42
1012.17 1011.45 1010.96 1011.21 1011.56 1011.98 1012.64 1013.37 1014.25 1015.06 1015.71 1016.54 1018.11 1019.83 1020.97 1021.88 1022.31 1022.66 1023.04 1023.29 1023.48 1023.66 1023.62 1023.17 1022.50 1022.23 1021.92 1021.26 1020.33 1019.33 1018.53 1017.55 1016.58 1014.87 1013.05 1012.46 1010.67 1010.61 1009.95 1009.76 1006.84 1005.28 1005.11 1004.81
1012.75 1011.62 1011.42 1011.63 1011.71 1012.56 1013.38 1014.08 1015.15 1015.98 1016.64 1017.38 1018.68 1019.78 1021.16 1021.58 1021.91 1022.03 1022.51 1022.88 1023.14 1023.28 1023.36 1023.18 1022.97 1022.65 1022.33 1021.56 1020.39 1019.31 1018.76 1018.05 1017.26 1015.79 1014.26 1013.33 1013.51 1012.68 1011.26 1010.92 1010.37 1009.04 1008.80 1009.05
1012.75 1011.89 1011.74 1011.98 1012.22 1013.22 1014.32 1014.91 1015.49 1016.54 1017.36 1018.26 1019.19 1020.16 1020.63 1021.05 1021.21 1021.58 1022.14 1022.56 1022.93 1023.16 1023.31 1023.28 1023.18 1023.16 1022.78 1022.16 1021.19 1019.87 1018.50 1017.76 1017.26 1015.84 1015.38 1014.58 1014.09 1013.56 1014.38 1013.05 1011.80 1010.24 1010.32 1012.10
1012.38 1012.22 1012.12 1012.08 1012.56 1014.27 1015.59 1015.83 1016.42 1017.25 1018.34 1019.18 1019.46 1020.32 1020.76 1020.81 1021.11 1021.72 1022.24 1022.59 1022.87 1023.20 1023.37 1023.48 1023.44 1023.58 1023.59 1022.92 1022.02 1021.03 1019.92 1018.75 1018.21 1016.72 1015.65 1014.25 1014.37 1014.44 1014.19 1013.62 1012.02 1011.42 1012.58 1013.37
1012.01 1012.16 1012.40 1012.62 1013.50 1015.04 1016.20 1016.57 1017.05 1017.96 1019.27 1020.10 1020.28 1020.71 1020.81 1020.55 1021.24 1022.02 1022.58 1022.90 1023.14 1023.52 1023.79 1023.83 1023.81 1024.03 1024.13 1023.74 1022.81 1021.88 1021.05 1020.31 1019.47 1019.16 1018.31 1017.50 1016.94 1016.08 1015.62 1014.12 1014.33 1013.81 1014.16 1013.09
1012.09 1012.17 1012.67 1012.78 1013.30 1015.37 1015.87 1016.50 1017.11 1017.78 1019.18 1020.06 1020.43 1020.75 1020.72 1020.39 1021.13 1022.54 1023.04 1023.30 1023.74 1024.13 1024.53 1024.53 1024.31 1024.42 1024.54 1024.06 1023.39 1022.72 1021.66 1020.94 1020.49 1019.82 1019.57 1019.17 1018.13 1017.31 1016.18 1015.65 1015.61 1014.17 1014.64 1014.30
1012.23 1012.61 1012.97 1012.81 1013.47 1014.31 1015.32 1015.87 1017.03 1017.95 1019.23 1020.10 1020.71 1021.27 1021.44 1021.04 1021.08 1023.02 1023.59 1023.74 1024.41 1025.08 1025.41 1025.21 1024.88 1024.99 1024.91 1024.62 1024.04 1023.34 1022.64 1021.81 1021.06 1020.70 1020.20 1019.62 1018.96 1017.66 1017.29 1017.26 1016.50 1016.71 1016.66 1016.06
1012.48 1012.89 1013.22 1013.21 1013.63 1015.14 1015.63 1016.51 1017.47 1018.96 1020.53 1020.73 1021.30 1022.01 1022.27 1022.61 1023.51 1023.83 1024.04 1024.36 1025.36 1026.05 1026.14 1026.05 1025.76 1025.47 1025.28 1024.83 1024.38 1023.83 1023.25 1022.49 1022.23 1021.76 1021.11 1020.42 1019.72 1018.99 1018.86 1018.48 1018.53 1018.07 1016.92 1015.78
1012.15 1012.70 1013.25 1013.60 1014.10 1015.77 1016.33 1017.24 1018.15 1019.84 1020.58 1021.18 1021.96 1022.65 1023.03 1023.42 1023.66 1023.95 1024.35 1025.00 1025.98 1026.52 1026.74 1026.71 1026.45 1026.16 1025.91 1025.32 1024.88 1024.51 1023.98 1023.51 1022.70 1021.92 1021.28 1020.90 1020.70 1020.26 1019.63 1019.10 1019.18 1018.69 1017.84 1017.60
1012.42 1012.44 1013.27 1014.32 1015.74 1016.82 1017.62 1018.18 1019.16 1019.81 1020.92 1021.65 1022.22 1022.72 1023.11 1023.47 1023.71 1024.16 1024.70 1025.37 1026.35 1026.82 1027.15 1027.19 1027.06 1026.86 1026.48 1025.99 1025.74 1025.23 1024.81 1023.86 1023.18 1022.61 1022.01 1021.41 1020.74 1019.87 1019.43 1019.64 1019.44 1018.81 1018.79 1018.85
1012.64 1013.30 1014.20 1015.36 1016.59 1017.45 1018.63 1019.52 1020.20 1020.89 1021.46 1021.96 1022.35 1022.74 1023.14 1023.61 1024.07 1024.44 1025.02 1025.65 1026.58 1027.03 1027.36 1027.60 1027.52 1027.39 1027.17 1026.81 1026.52 1026.21 1025.44 1024.48 1023.74 1023.23 1022.58 1022.00 1021.42 1020.80 1020.12 1019.61 1019.41 1019.37 1019.67 1019.46
1012.47 1013.70 1015.17 1016.39 1017.29 1018.46 1019.31 1020.23 1021.09 1021.79 1022.26 1022.53 1023.00 1023.44 1023.78 1023.97 1024.52 1024.87 1025.56 1026.10 1026.58 1027.06 1027.43 1027.84 1028.04 1027.99 1027.79 1027.45 1027.12 1026.64 1025.89 1025.22 1024.51 1024.05 1023.59 1023.12 1022.65 1022.20 1021.78 1021.35 1021.14 1020.96 1021.03 1020.77
1013.13 1014.32 1015.60 1016.49 1017.42 1018.33 1019.58 1020.78 1021.57 1022.13 1022.58 1023.08 1023.47 1023.93 1024.57 1024.82 1025.19 1025.50 1026.18 1026.78 1027.07 1027.40 1027.71 1028.16 1028.52 1028.56 1028.41 1028.25 1027.96 1027.45 1026.72 1026.03 1025.40 1024.82 1024.29 1023.79 1023.27 1022.84 1022.52 1022.12 1021.61 1021.22 1021.45 1021.44
Thickness
5632 5621 5624 5640 5640 5635 5629 5628 5630 5643 5656 5646 5637 5632 5633 5631 5622 5611 5605 5598 5596 5593 5592 5586 5585 5589 5597 5604 5615 5624 5639 5654 5666 5672 5678 5682 5685 5698 5697 5704 5708 5708 5706 5705
5618 5613 5631 5631 5629 5624 5619 5618 5625 5640 5647 5636 5632 5627 5625 5606 5597 5589 5581 5575 5570 5571 5571 5570 5569 5564 5561 5571 5585 5602 5613 5625 5649 5660 5667 5673 5680 5687 5692 5695 5700 5703 5705 5701
5611 5625 5621 5617 5618 5615 5616 5615 5617 5615 5621 5627 5626 5627 5595 5592 5593 5579 5567 5554 5543 5538 5541 5544 5544 5541 5539 5544 5555 5573 5582 5598 5630 5647 5652 5659 5670 5672 5675 5682 5693 5696 5697 5700
5614 5618 5610 5608 5607 5612 5601 5616 5606 5601 5599 5595 5614 5597 5614 5582 5572 5564 5552 5537 5526 5523 5518 5515 5516 5517 5517 5519 5526 5538 5556 5573 5594 5628 5631 5637 5649 5654 5672 5680 5690 5694 5694 5697
5595 5600 5594 5589 5597 5603 5594 5600 5592 5592 5589 5593 5603 5594 5587 5574 5549 5543 5534 5525 5512 5503 5495 5494 5494 5495 5502 5501 5507 5517 5530 5549 5567 5581 5609 5619 5633 5649 5662 5675 5681 5689 5693 5695
5594 5606 5596 5595 5598 5593 5595 5588 5594 5596 5591 5578 5602 5595 5543 5546 5528 5520 5515 5505 5493 5487 5482 5476 5474 5478 5483 5488 5491 5500 5508 5519 5532 5548 5570 5592 5609 5631 5647 5662 5672 5679 5684 5685
5589 5591 5594 5589 5582 5592 5584 5584 5576 5586 5570 5573 5597 5581 5535 5529 5519 5501 5493 5485 5475 5470 5465 5460 5459 5459 5465 5469 5472 5476 5483 5491 5503 5514 5538 5562 5585 5614 5638 5655 5670 5674 5676 5679
5584 5570 5585 5584 5575 5575 5574 5574 5562 5553 5564 5572 5595 5562 5513 5516 5509 5501 5485 5471 5458 5453 5449 5440 5439 5442 5444 5448 5451 5453 5459 5467 5469 5478 5499 5533 5559 5584 5621 5628 5659 5675 5678 5679
5581 5576 5580 5577 5576 5573 5568 5557 5568 5552 5561 5559 5575 5523 5523 5509 5499 5487 5473 5464 5451 5444 5436 5429 5427 5424 5431 5433 5432 5434 5442 5448 5448 5453 5469 5501 5530 5554 5591 5620 5641 5670 5676 5674
5570 5561 5569 5569 5565 5566 5561 5568 5549 5548 5537 5545 5565 5533 5514 5487 5482 5477 5462 5451 5443 5435 5422 5417 5415 5419 5419 5421 5418 5422 5432 5435 5430 5439 5450 5478 5499 5530 5560 5604 5612 5612 5653 5659
5560 5554 5555 5560 5553 5562 5556 5551 5546 5546 5541 5535 5541 5515 5474 5467 5467 5463 5452 5439 5436 5426 5412 5409 5410 5412 5413 5417 5417 5417 5425 5417 5417 5430 5449 5465 5481 5511 5539 5553 5574 5579 5624 5648
5548 5550 5547 5552 5565 5562 5556 5544 5538 5518 5530 5522 5515 5486 5468 5465 5459 5454 5443 5435 5428 5419 5409 5406 5408 5411 5415 5417 5411 5404 5408 5403 5410 5424 5442 5458 5478 5493 5527 5543 5541 5573 5591 5615
5533 5532 5532 5541 5545 5547 5542 5534 5528 5521 5515 5507 5504 5487 5461 5450 5450 5445 5437 5433 5425 5418 5410 5407 5408 5406 5406 5405 5401 5399 5404 5407 5410 5420 5439 5445 5470 5487 5514 5514 5522 5570 5585 5552
5526 5534 5534 5526 5525 5531 5519 5519 5513 5507 5498 5495 5481 5463 5451 5439 5434 5431 5429 5426 5421 5415 5408 5407 5406 5403 5400 5399 5401 5403 5405 5409 5411 5425 5436 5450 5468 5478 5495 5497 5531 5551 5566 5557
5517 5526 5533 5534 5536 5525 5516 5513 5500 5490 5488 5486 5469 5463 5445 5441 5440 5433 5425 5427 5422 5415 5409 5405 5401 5399 5397 5397 5404 5409 5408 5411 5415 5426 5441 5452 5456 5470 5484 5496 5505 5522 5533 5528
5513 5518 5528 5524 5530 5511 5504 5507 5503 5491 5485 5478 5462 5452 5451 5451 5450 5445 5437 5428 5420 5414 5408 5405 5400 5395 5393 5393 5396 5406 5416 5416 5419 5429 5437 5447 5453 5462 5460 5474 5488 5505 5509 5500
5511 5512 5516 5516 5523 5499 5486 5490 5487 5479 5469 5461 5465 5448 5444 5446 5444 5436 5428 5424 5419 5413 5407 5401 5397 5392 5386 5388 5390 5394 5404 5410 5412 5424 5436 5451 5455 5455 5463 5466 5481 5492 5490 5483
5510 5511 5512 5506 5504 5492 5469 5480 5478 5456 5445 5436 5442 5436 5439 5447 5437 5427 5420 5415 5411 5406 5400 5396 5393 5386 5381 5381 5385 5387 5392 5397 5404 5404 5413 5422 5428 5436 5441 5456 5455 5465 5464 5474
5509 5509 5501 5504 5509 5477 5482 5478 5469 5464 5452 5445 5442 5439 5441 5446 5436 5412 5410 5407 5401 5396 5389 5388 5388 5383 5378 5379 5382 5384 5389 5393 5395 5399 5399 5403 5414 5422 5431 5437 5439 5456 5451 5454
5504 5502 5499 5508 5503 5501 5483 5485 5475 5467 5448 5444 5437 5427 5425 5433 5436 5401 5398 5398 5390 5383 5378 5378 5380 5376 5373 5372 5375 5380 5383 5387 5391 5392 5394 5397 5402 5414 5417 5418 5425 5424 5424 5432
5490 5491 5490 5498 5501 5476 5482 5474 5464 5447 5432 5430 5423 5412 5410 5403 5392 5390 5389 5386 5374 5367 5366 5366 5368 5369 5368 5369 5371 5373 5376 5382 5382 5383 5386 5390 5393 5399 5400 5403 5403 5408 5421 5433
5491 5489 5488 5496 5499 5474 5473 5462 5454 5427 5423 5419 5409 5399 5394 5390 5388 5385 5381 5373 5361 5355 5353 5353 5355 5357 5357 5360 5362 5363 5365 5367 5374 5380 5385 5386 5386 5388 5392 5395 5395 5401 5409 5413
5483 5494 5488 5483 5460 5455 5449 5441 5435 5430 5415 5407 5401 5395 5390 5385 5383 5378 5371 5364 5351 5346 5342 5341 5341 5342 5344 5347 5348 5350 5352 5359 5363 5366 5372 5377 5383 5390 5392 5388 5389 5396 5397 5398
5482 5483 5472 5465 5457 5448 5434 5426 5420 5413 5406 5400 5395 5389 5384 5377 5372 5369 5362 5355 5343 5337 5333 5330 5330 5329 5329 5331 5332 5333 5339 5346 5350 5353 5358 5361 5366 5372 5378 5384 5386 5386 5383 5383
5485 5476 5458 5449 5444 5433 5427 5415 5405 5396 5390 5386 5380 5374 5370 5368 5361 5357 5349 5343 5339 5333 5328 5322 5318 5317 5316 5318 5319 5321 5325 5330 5334 5336 5339 5341 5344 5347 5351 5354 5356 5359 5358 5360
5476 5461 5450 5449 5438 5433 5417 5404 5395 5387 5381 5374 5370 5364 5356 5353 5348 5345 5337 5330 5327 5323 5320 5314 5309 5306 5305 5304 5303 5305 5310 5314 5317 5320 5322 5325 5329 5331 5333 5335 5339 5342 5339 5339